(149862) = 2005 QR72

Discovered at Kitt Peak on 2005-08-29 by Spacewatch.

Orbit

Orbit type: Main Belt

Note: WebGL enabled browser required.

epoch2024-03-31.0
epoch JD2460400.5
perihelion date2023-05-20.44926
perihelion JD2460084.94926
argument of perihelion (°)24.87266
ascending node (°)334.89459
inclination (°)7.39774
eccentricity0.0778554
perihelion distance (AU)2.4834786
Tisserand w.r.t. Jupiter3.4
ΔV w.r.t. Earth (km/sec)10.1
semimajor axis (AU)2.6931553
mean anomaly (°)70.36893
mean daily motion (°/day)0.22300350
aphelion distance (AU)2.903
period (years)4.42
P-vector [x]0.99850633
P-vector [y]-0.02817747
P-vector [z]0.04680964
Q-vector [x]0.00085820
Q-vector [y]0.86473470
Q-vector [z]0.50222820
absolute magnitude15.71
phase slope0.15
uncertainty0
referenceMPEC 2024-D136
observations used553
oppositions15
arc length (days)8195
first opposition used2001
last opposition used2024
residual rms (arc-secs)0.71
perturbers coarse indicatorM-v
perturbers precise indicator003Ek
first observation date used2001-09-21.0
last observation date used2024-02-28.0
computer nameMPCLINUX
JD of orbit computation2456966.723513
perihelion JD uncertainty (days)1.6670E-04
argument of perihelion uncertainty (°)5.9178E-05
ascending node uncertainty (°)4.3195E-05
inclination uncertainty (°)7.3346E-06
eccentricity uncertainty 1.0147E-07
perihelion distance uncertainty (AU)2.7511E-07
Minimum Orbit Intersection Distances (in AU)
for orbit epoch: 2460400.5, reference: E2024-DD6
Mercury2.10808
Venus1.76264
Earth1.48104
Mars1.09706
Jupiter2.483
Saturn6.32554
Uranus15.5456
Neptune27.3193

Observations

575 total observations over interval: 2001 09 21.39083 – 2024 02 28.251917
These data are available for download (format description).

Date (UT) J2000 RA J2000 Dec Magn Location Ref
2001 09 21.39083 03 49 01.07 +29 10 12.1 19.2   704 – Lincoln Laboratory ETS, New Mexico MPS 149587
2001 09 21.40358 03 49 01.15 +29 10 16.4 19.2   704 – Lincoln Laboratory ETS, New Mexico MPS 149588
2001 09 21.41782 03 49 01.33 +29 10 20.6 19.5   704 – Lincoln Laboratory ETS, New Mexico MPS 149588
2001 09 21.43206 03 49 01.44 +29 10 24.9 19.7   704 – Lincoln Laboratory ETS, New Mexico MPS 149588
2001 09 21.43495 03 49 01.51 +29 10 25.6 19.2   704 – Lincoln Laboratory ETS, New Mexico MPS 149588
2001 09 21.44632 03 49 01.66 +29 10 29.2 19.7   704 – Lincoln Laboratory ETS, New Mexico MPS 149588
2001 09 21.44934 03 49 01.65 +29 10 30.1 19.6   704 – Lincoln Laboratory ETS, New Mexico MPS 149588
2001 09 21.46058 03 49 01.82 +29 10 33.5 19.5   704 – Lincoln Laboratory ETS, New Mexico MPS 149588
2001 10 15.32438 03 45 26.96 +30 39 50.9 19.2   704 – Lincoln Laboratory ETS, New Mexico MPS 149588
2001 10 15.34016 03 45 26.37 +30 39 52.9 19.6   704 – Lincoln Laboratory ETS, New Mexico MPS 149588
2001 10 15.35593 03 45 25.85 +30 39 54.8 19.7   704 – Lincoln Laboratory ETS, New Mexico MPS 149588
2001 10 15.37169 03 45 25.31 +30 39 57.3 20.0   704 – Lincoln Laboratory ETS, New Mexico MPS 149588
2001 10 15.38746 03 45 24.77 +30 39 59.9 19.7   704 – Lincoln Laboratory ETS, New Mexico MPS 149588
2001 11 11.28666 03 22 34.93 +30 40 14.2 18.8   704 – Lincoln Laboratory ETS, New Mexico MPS 149588
2001 11 11.29088 03 22 34.74 +30 40 13.1 18.7 R 699 – Lowell Observatory-LONEOS MPS 149588
2001 11 11.30105 03 22 34.02 +30 40 12.0 19.1   704 – Lincoln Laboratory ETS, New Mexico MPS 149588
2001 11 11.31362 03 22 33.25 +30 40 09.6   699 – Lowell Observatory-LONEOS MPS 149588
2001 11 11.31544 03 22 33.07 +30 40 10.1 19.1   704 – Lincoln Laboratory ETS, New Mexico MPS 149588
2001 11 11.32985 03 22 32.13 +30 40 08.3 19.3   704 – Lincoln Laboratory ETS, New Mexico MPS 149588
2001 11 11.33638 03 22 31.79 +30 40 06.6   699 – Lowell Observatory-LONEOS MPS 149588
2001 11 11.34424 03 22 31.20 +30 40 06.2 19.4   704 – Lincoln Laboratory ETS, New Mexico MPS 149588
2001 11 11.35918 03 22 30.34 +30 40 02.8   699 – Lowell Observatory-LONEOS MPS 149588
2001 12 18.19697 02 52 19.35 +28 00 19.8 19.1 R 699 – Lowell Observatory-LONEOS MPS 149588
2001 12 18.22196 02 52 18.64 +28 00 13.5   699 – Lowell Observatory-LONEOS MPS 149588
2001 12 18.24694 02 52 18.05 +28 00 05.8   699 – Lowell Observatory-LONEOS MPS 149588
2001 12 18.27194 02 52 17.46 +27 59 59.0   699 – Lowell Observatory-LONEOS MPS 149588
2003 02 22.32540 10 30 12.06 +09 27 39.6 20.1   644 – Palomar Mountain/NEAT MPS 149588
2003 02 22.34916 10 30 10.70 +09 27 43.4 20.3   644 – Palomar Mountain/NEAT MPS 149588
2003 02 22.37434 10 30 09.27 +09 27 48.0 20.3   644 – Palomar Mountain/NEAT MPS 149588
2003 02 26.94813 10 25 52.46 +09 41 24.2 19.2 V 209 – Asiago Observatory, Cima Ekar-ADAS MPS 149588
2003 02 26.97000 10 25 51.13 +09 41 27.7 18.9 V 209 – Asiago Observatory, Cima Ekar-ADAS MPS 149588
2003 02 26.99675 10 25 49.51 +09 41 30.7 19.8 V 209 – Asiago Observatory, Cima Ekar-ADAS MPS 149588
2003 03 06.44193 10 19 00.59 +10 02 32.9 19.9   644 – Palomar Mountain/NEAT MPS 149588
2003 03 06.45225 10 19 00.04 +10 02 35.1 19.8   644 – Palomar Mountain/NEAT MPS 149588
2003 03 06.46271 10 18 59.45 +10 02 36.3 19.9   644 – Palomar Mountain/NEAT MPS 149588
2003 03 31.136400 10 01 59.901 +10 43 51.76 20.88 V 645 – Apache Point-Sloan Digital Sky Survey MPS 149588
2003 03 31.139872 10 01 59.803 +10 43 51.88 21.78   645 – Apache Point-Sloan Digital Sky Survey MPS 149588
2005 08 29.35979 00 20 37.77 +06 38 05.7 19.4 V 691 – Steward Observatory, Kitt Peak-Spacewatch MPS 140325
2005 08 29.37720 00 20 37.12 +06 38 06.3 19.3 V 691 – Steward Observatory, Kitt Peak-Spacewatch MPS 140325
2005 08 29.39524 00 20 36.43 +06 38 06.8 19.3 V 691 – Steward Observatory, Kitt Peak-Spacewatch MPS 140325
2005 08 29.39969 00 20 36.28 +06 38 06.4 19.2 R 699 – Lowell Observatory-LONEOS MPS 140325
2005 08 29.41799 00 20 35.59 +06 38 08.7   699 – Lowell Observatory-LONEOS MPS 140325
2005 08 29.43623 00 20 34.92 +06 38 07.8   699 – Lowell Observatory-LONEOS MPS 140325
2005 08 29.45452 00 20 34.28 +06 38 09.2   699 – Lowell Observatory-LONEOS MPS 140325
2005 08 30.29646 00 20 03.58 +06 38 28.9 19.7   704 – Lincoln Laboratory ETS, New Mexico MPS 140325
2005 08 30.30748 00 20 03.11 +06 38 28.7 19.9   704 – Lincoln Laboratory ETS, New Mexico MPS 140325
2005 08 30.31850 00 20 02.71 +06 38 29.8 19.9   704 – Lincoln Laboratory ETS, New Mexico MPS 140325
2005 08 30.32955 00 20 02.28 +06 38 29.8 20.3   704 – Lincoln Laboratory ETS, New Mexico MPS 140325
2005 08 30.34067 00 20 01.81 +06 38 29.9 19.8   704 – Lincoln Laboratory ETS, New Mexico MPS 140325
2005 09 05.96339 00 15 26.68 +06 37 19.0 18.9 V A50 – Andrushivka Astronomical Observatory MPS 185488
2005 09 05.97089 00 15 26.37 +06 37 19.0 19.6 V A50 – Andrushivka Astronomical Observatory MPS 185488
2005 09 15.26538 00 07 45.04 +06 25 20.8 18.8 V 703 – Catalina Sky Survey MPS 150723
2005 09 15.27335 00 07 44.68 +06 25 19.3 18.8 V 703 – Catalina Sky Survey MPS 150723
2005 09 15.28139 00 07 44.11 +06 25 17.3 18.7 V 703 – Catalina Sky Survey MPS 150723
2005 09 15.28939 00 07 43.78 +06 25 17.1 19.2 V 703 – Catalina Sky Survey MPS 150723
2005 09 26.24881 23 57 44.85 +05 59 03.3 19.0 V 703 – Catalina Sky Survey MPS 142710
2005 09 26.25615 23 57 44.31 +05 59 01.7 18.2 V 703 – Catalina Sky Survey MPS 142710
2005 09 26.26345 23 57 43.95 +05 59 00.8 19.1 V 703 – Catalina Sky Survey MPS 142710
2005 09 26.27078 23 57 43.56 +05 58 59.5 19.1 V 703 – Catalina Sky Survey MPS 142710
2005 09 29.17641 23 55 05.27 +05 50 35.0 18.7 R 699 – Lowell Observatory-LONEOS MPS 142710
2005 09 29.19920 23 55 03.92 +05 50 30.9   699 – Lowell Observatory-LONEOS MPS 142710
2005 09 29.22201 23 55 02.72 +05 50 27.1   699 – Lowell Observatory-LONEOS MPS 142710
2005 09 29.24480 23 55 01.45 +05 50 23.3   699 – Lowell Observatory-LONEOS MPS 142710
2006 12 13.47513 08 33 19.17 +26 29 11.6 20.2 V 691 – Steward Observatory, Kitt Peak-Spacewatch MPS 192233
2006 12 13.49247 08 33 18.72 +26 29 13.0 20.1 V 691 – Steward Observatory, Kitt Peak-Spacewatch MPS 192233
2006 12 13.50978 08 33 18.28 +26 29 14.8 20.2 V 691 – Steward Observatory, Kitt Peak-Spacewatch MPS 192233
2006 12 15.33658 08 32 31.60 +26 32 41.4 19.8   704 – Lincoln Laboratory ETS, New Mexico MPS 192233
2006 12 15.35007 08 32 31.26 +26 32 43.7 19.6   704 – Lincoln Laboratory ETS, New Mexico MPS 192233
2006 12 15.37706 08 32 30.56 +26 32 47.3 20.1   704 – Lincoln Laboratory ETS, New Mexico MPS 192233
2006 12 21.40856 08 29 13.51 +26 45 07.4 20.6 V 691 – Steward Observatory, Kitt Peak-Spacewatch MPS 192233
2006 12 21.42585 08 29 12.81 +26 45 10.0 20.6 V 691 – Steward Observatory, Kitt Peak-Spacewatch MPS 192233
2006 12 21.44321 08 29 12.11 +26 45 12.0 20.6 V 691 – Steward Observatory, Kitt Peak-Spacewatch MPS 192233
2007 01 10.23496 08 12 13.75 +27 25 25.2   691 – Steward Observatory, Kitt Peak-Spacewatch MPS 195530
2007 01 10.25228 08 12 12.65 +27 25 27.2   691 – Steward Observatory, Kitt Peak-Spacewatch MPS 195530
2007 01 10.26961 08 12 11.56 +27 25 28.7   691 – Steward Observatory, Kitt Peak-Spacewatch MPS 195530
2007 01 10.27089 08 12 11.55 +27 25 29.9 19.3   704 – Lincoln Laboratory ETS, New Mexico MPS 195530
2007 01 10.28679 08 12 10.48 +27 25 31.3 20.1   704 – Lincoln Laboratory ETS, New Mexico MPS 195530
2007 01 10.30104 08 12 09.67 +27 25 31.2 20.1   704 – Lincoln Laboratory ETS, New Mexico MPS 195530
2007 01 17.28629 08 04 46.61 +27 34 47.9 19.2 R 644 – Palomar Mountain/NEAT MPS 197060
2007 01 17.30667 08 04 45.25 +27 34 49.4 19.4 R 644 – Palomar Mountain/NEAT MPS 197060
2007 01 17.32824 08 04 43.82 +27 34 51.0 19.1 R 644 – Palomar Mountain/NEAT MPS 197060
2007 01 18.32779 08 03 39.36 +27 35 48.4 19.0 R 644 – Palomar Mountain/NEAT MPS 197060
2007 01 18.34845 08 03 38.01 +27 35 49.9 19.0 R 644 – Palomar Mountain/NEAT MPS 197060
2007 01 18.36919 08 03 36.63 +27 35 50.4 18.8 R 644 – Palomar Mountain/NEAT MPS 197060
2007 01 24.21318 07 57 22.54 +27 39 21.5 19.4   704 – Lincoln Laboratory ETS, New Mexico MPS 197060
2007 01 24.22547 07 57 21.76 +27 39 22.9 19.9   704 – Lincoln Laboratory ETS, New Mexico MPS 197060
